Regional Weather Roundup
Issued by NWS

Home | Current Version | Previous Version | Text Only | Print | Product List | Glossary Off
Versions: 1 2 3 4 5 6 7 8 9 10 11 12 13 14 15 16 17 18 19 20 21 22 23 24 25 26 27 28 29 30 31 32 33 34 35 36 37 38 39 40 41 42 43 44 45 46 47 48 49 50

480
ASUS43 KLMK 061510
RWRKY
KENTUCKY REGIONAL WEATHER ROUNDUP
NATIONAL WEATHER SERVICE LOUISVILLE KY
1000 AM EST SAT FEB 06 2016

NOTE "FAIR" INDICATES FEW OR NO CLOUDS BELOW 12,000 FEET
WITH NO SIGNIFICANT WEATHER AND/OR OBSTRUCTIONS TO VISIBILITY.

KYZ001>023-026-027-061>063-070>075-061600-
WESTERN AND SOUTH CENTRAL KENTUCKY

CITY           SKY/WX    TMP DP  RH WIND       PRES   REMARKS
PADUCAH        MOSUNNY   39  26  59 SW8       30.36R WCI  33
HENDERSON      SUNNY     37  25  60 SW6       30.36R WCI  33
OWENSBORO      MOSUNNY   36  28  73 S7        30.37R WCI  30
HOPKINSVILLE   SUNNY     40  23  50 SW5       30.38R
BOWLING GREEN  SUNNY     38  26  62 S6        30.40R WCI  33
GLASGOW        SUNNY     39  23  54 SW3       30.39R
$$

KYZ024-025-028>034-038-045-046-053-061600-
NORTH CENTRAL KENTUCKY

CITY           SKY/WX    TMP DP  RH WIND       PRES   REMARKS
LOUISVILLE/SDF MOSUNNY   34  25  69 CALM      30.37S
LOUISVILLE/LOU SUNNY     34  25  69 CALM      30.37S
FORT KNOX      MOSUNNY   37  23  59 S6        30.34S WCI  32
$$

KYZ035>037-039>044-047>052-055>060-089>105-061600-
NORTHEAST KENTUCKY

CITY           SKY/WX    TMP DP  RH WIND       PRES   REMARKS
LEXINGTON      SUNNY     37  20  50 SW9       30.36R WCI  30
COVINGTON      MOSUNNY   31  27  85 S3        30.34S FOG
FRANKFORT      SUNNY     35  19  52 SW6       30.35S WCI  30
$$

KYZ054-064>069-076>088-106>120-061600-
SOUTHEAST KENTUCKY

CITY           SKY/WX    TMP DP  RH WIND       PRES   REMARKS
JACKSON        SUNNY     34  17  50 SW3       30.37R
LONDON         SUNNY     34  21  59 CALM      30.39R
SOMERSET       SUNNY     34  23  64 CALM      30.41S
MIDDLESBORO    SUNNY     31  23  73 CALM      30.42S
MONTICELLO     SUNNY     40  23  50 NW9       30.41S WCI  34
$$





USA.gov is the U.S. government's official web portal to all federal, state and local government web resources and services.